Weather History for Lorain / Elyria, OH

Change the Weather History Date:

Monday, September 16, 2013

  Actual Average (KCLE) Record (KCLE)
Temperature  
Mean Temperature 58 °F 65 °F  
Max Temperature 68 °F 74 °F 93 °F (1991)
Min Temperature 50 °F 56 °F 39 °F (1984)
Degree Days  
Heating Degree Days 7 3  
Month to date heating degree days 24  
Since 1 July heating degree days 36  
Cooling Degree Days 0 3  
Month to date cooling degree days 64  
Year to date cooling degree days 779  
Growing Degree Days 8 (Base 50)    
Moisture  
Dew Point 53 °F    
Average Humidity 74    
Maximum Humidity 90    
Minimum Humidity 59    
Precipitation  
Precipitation 0.00 in 0.14 in 1.12 in (2010)
Month to date precipitation 2.00  
Year to date precipitation 27.54  
Snow  
Snow 0.00 in 0.00 in - ()
Month to date snowfall 0.0  
Since 1 July snowfall 0.0  
Since 1 September snowfall 0.0  
Snow Depth -    
Sea Level Pressure  
Sea Level Pressure 30.24 in    
Wind  
Wind Speed 5 mph (NNE)    
Max Wind Speed 15 mph    
Max Gust Speed 22 mph    
Visibility 9 miles    
Events      
T = Trace of Precipitation, MM = Missing Value Source: NWS Daily Summary

Daily Weather History Graph

Daily Weather History Graph

Search for Another Location

Airport:

Trip Planner

Search our weather history database for the weather conditions in past years. The results will help you decide how hot, cold, wet, or windy it might be!

Date:

Astronomy

Sep. 16, 2013 Rise Set
Actual Time 7:10 AM EDT 7:35 PM EDT
Civil Twilight 6:42 AM EDT 8:03 PM EDT
Nautical Twilight 6:09 AM EDT 8:36 PM EDT
Astronomical Twilight 5:36 AM EDT 9:09 PM EDT
Moon 5:45 PM EDT (9/16) 3:53 AM EDT (9/16)
Length of Visible Light 13h 20m
Length of Day
12h 25m
Waxing Gibbous, 90% of the Moon is Illuminated
Sep 16
Waxing Gibbous
Sep 19
Full
Sep 26
Last Quarter
Oct 4
New
Oct 11
First Quarter

Hourly Weather History & Observations

Time (EDT) Temp. Dew Point Humidity Pressure Visibility Wind Dir Wind Speed Gust Speed Precip Events Conditions
12:53 AM 60.1 °F 57.0 °F 90% 30.12 in 6.0 mi North 3.5 mph - N/A   Overcast
1:53 AM 61.0 °F 57.0 °F 87% 30.12 in 5.0 mi Calm Calm - N/A   Overcast
2:37 AM 60.8 °F 57.2 °F 88% 30.13 in 5.0 mi Calm Calm - N/A   Overcast
2:44 AM 60.8 °F 57.2 °F 88% 30.13 in 6.0 mi Calm Calm - N/A   Overcast
2:53 AM 61.0 °F 57.9 °F 90% 30.12 in 5.0 mi Calm Calm - N/A   Overcast
3:53 AM 60.1 °F 57.0 °F 90% 30.12 in 3.0 mi Calm Calm - N/A   Overcast
4:53 AM 60.1 °F 57.0 °F 90% 30.14 in 4.0 mi Calm Calm - N/A   Overcast
5:53 AM 60.1 °F 55.9 °F 86% 30.16 in 9.0 mi North 3.5 mph - 0.00 in   Overcast
6:11 AM 60.8 °F 53.6 °F 77% 30.17 in 10.0 mi North 4.6 mph - N/A   Overcast
6:53 AM 59.0 °F 53.1 °F 81% 30.18 in 10.0 mi North 4.6 mph - N/A   Overcast
7:53 AM 60.1 °F 54.0 °F 80% 30.20 in 10.0 mi North 4.6 mph - N/A   Overcast
8:01 AM 60.8 °F 53.6 °F 77% 30.20 in 10.0 mi North 4.6 mph - N/A   Overcast
8:53 AM 61.0 °F 54.0 °F 78% 30.22 in 10.0 mi North 3.5 mph - N/A   Overcast
9:27 AM 60.8 °F 53.6 °F 77% 30.23 in 10.0 mi North 6.9 mph - N/A   Overcast
9:53 AM 63.0 °F 54.0 °F 72% 30.23 in 10.0 mi North 6.9 mph - N/A   Overcast
10:09 AM 62.6 °F 53.6 °F 72% 30.24 in 10.0 mi North 9.2 mph - N/A   Mostly Cloudy
10:53 AM 63.0 °F 54.0 °F 72% 30.25 in 10.0 mi NNE 12.7 mph - N/A   Overcast
11:02 AM 64.4 °F 53.6 °F 68% 30.26 in 10.0 mi NNE 9.2 mph - N/A   Mostly Cloudy
11:53 AM 66.9 °F 54.0 °F 63% 30.26 in 10.0 mi NNE 10.4 mph 16.1 mph N/A   Mostly Cloudy
12:39 PM 66.2 °F 53.6 °F 64% 30.28 in 10.0 mi NNE 15.0 mph 21.9 mph N/A   Mostly Cloudy
12:53 PM 66.9 °F 52.0 °F 59% 30.27 in 10.0 mi NNE 12.7 mph 18.4 mph N/A   Mostly Cloudy
1:53 PM 66.0 °F 52.0 °F 60% 30.29 in 10.0 mi NNE 13.8 mph - N/A   Overcast
2:53 PM 64.9 °F 51.1 °F 61% 30.29 in 10.0 mi North 10.4 mph 20.7 mph N/A   Overcast
3:40 PM 64.4 °F 51.8 °F 64% 30.29 in 10.0 mi NNE 10.4 mph - N/A   Overcast
3:53 PM 66.0 °F 51.1 °F 59% 30.28 in 10.0 mi NNE 12.7 mph 19.6 mph N/A   Overcast
4:53 PM 66.0 °F 51.1 °F 59% 30.29 in 10.0 mi NNE 11.5 mph 18.4 mph N/A   Scattered Clouds
5:53 PM 63.0 °F 48.9 °F 60% 30.30 in 10.0 mi NNE 10.4 mph - N/A   Overcast
6:53 PM 61.0 °F 46.9 °F 60% 30.31 in 10.0 mi NNE 9.2 mph - N/A   Overcast
7:53 PM 59.0 °F 46.9 °F 64% 30.32 in 10.0 mi NNE 6.9 mph - N/A   Overcast
8:53 PM 57.9 °F 48.0 °F 70% 30.33 in 10.0 mi NE 4.6 mph - N/A   Overcast
9:53 PM 54.0 °F 46.0 °F 75% 30.34 in 10.0 mi NE 4.6 mph - N/A   Clear
10:53 PM 50.0 °F 45.0 °F 83% 30.35 in 10.0 mi Calm Calm - N/A   Clear
11:53 PM 51.1 °F 46.0 °F 83% 30.35 in 10.0 mi Calm Calm - N/A   Mostly Cloudy